Dewpoint
54 55 54 54 53 54 53 54 52 52 51 54 56 57 57 55 55 49 49 52 50 51 44 38 40 44 39 35 33 32 30 27 29 29 28 26 26 25 25 23 23 26 31 36 38
54 54 54 54 52 53 54 53 52 52 52 55 56 57 57 56 47 47 54 57 58 54 36 38 44 40 38 33 33 32 30 30 28 28 28 26 26 25 24 23 24 27 30 33 34
55 53 53 54 52 51 53 50 52 53 53 56 56 57 57 55 41 43 52 56 57 54 39 39 41 41 37 33 30 31 30 30 29 28 27 25 24 24 24 25 24 25 27 29 29
53 55 55 53 53 51 50 53 54 54 55 56 55 56 55 48 33 40 52 54 55 51 35 35 40 38 36 30 27 29 31 30 29 26 25 24 22 20 22 22 22 24 27 27 27
53 54 56 53 54 52 53 54 54 55 56 56 55 55 47 40 35 42 51 47 42 35 33 40 41 35 30 25 27 29 28 27 29 29 28 23 21 20 20 22 24 25 27 27 28
54 54 56 53 53 53 54 54 55 55 55 53 52 52 40 33 42 43 44 40 35 34 33 35 33 29 26 27 27 28 27 27 28 28 30 23 22 26 21 25 25 26 25 26 28
54 53 55 57 55 54 55 55 55 55 53 52 51 43 39 37 43 46 40 37 38 35 32 33 30 29 29 27 27 25 24 27 29 29 29 30 22 21 22 24 23 25 26 29 30
53 53 53 55 55 55 55 54 54 54 53 52 50 40 38 42 46 40 36 34 36 35 34 35 33 31 28 26 21 20 21 22 27 29 30 26 18 15 24 23 23 24 26 28 29
53 53 53 52 55 55 55 55 54 53 51 49 43 37 33 44 38 40 38 31 33 34 34 32 33 29 26 20 18 18 18 19 24 30 30 27 19 20 22 24 23 23 25 27 30
53 53 54 52 52 55 54 53 50 48 45 44 42 34 35 36 40 39 37 35 32 32 33 33 31 24 21 21 15 9 16 17 18 27 28 27 25 24 25 25 24 22 22 25 29
53 52 53 54 52 49 49 46 37 40 40 37 37 35 35 39 40 34 37 32 31 30 26 32 37 35 22 22 18 16 18 17 23 28 27 24 25 24 24 26 26 23 23 25 28
53 52 52 51 52 49 46 42 42 41 32 37 36 36 39 38 30 32 34 28 29 28 28 30 29 27 27 23 21 19 16 18 22 27 26 24 24 22 23 23 25 24 24 28 33
53 52 51 51 48 46 44 44 46 44 34 28 33 31 33 32 30 31 32 30 27 27 26 28 26 27 25 24 21 23 17 20 21 26 27 26 22 22 23 29 32 33 35 33 35
53 52 50 49 43 43 41 45 45 43 39 30 26 29 30 33 28 32 34 30 28 25 25 26 29 25 25 24 24 17 28 26 26 25 27 26 28 22 17 22 23 25 34 34 36
53 51 49 47 40 38 43 45 42 37 30 25 25 30 32 29 28 31 34 30 27 26 24 25 27 25 24 24 27 27 29 28 29 26 30 24 29 25 22 16 17 23 26 34 37
52 50 46 43 44 44 44 41 35 39 24 30 26 28 26 30 30 31 31 32 30 26 28 28 28 28 26 30 30 31 28 26 28 26 30 22 25 29 30 23 26 30 29 33 37
50 48 43 40 39 45 42 37 39 30 22 26 25 27 27 27 28 31 31 29 26 29 23 23 25 29 29 29 32 29 23 31 29 31 23 26 26 33 26 26 29 30 33 36 36
47 46 45 42 45 42 36 30 31 21 21 22 27 26 25 27 28 28 26 26 30 24 23 25 25 25 31 30 27 28 24 27 17 16 23 24 28 40 27 31 32 31 33 35 38
45 43 44 44 45 40 29 34 26 22 24 25 24 20 23 25 26 26 26 27 30 28 23 18 24 31 33 35 33 29 29 26 31 25 25 25 34 29 29 29 29 32 36 38 38
41 41 43 45 43 36 33 27 25 25 27 25 18 21 17 23 22 22 25 28 30 31 30 26 24 29 33 35 36 32 31 30 32 24 23 23 27 37 38 32 31 30 33 34 36
41 32 39 46 41 33 36 30 29 31 32 28 25 23 22 23 25 25 24 29 32 32 31 29 27 29 33 30 25 32 30 30 28 26 24 19 32 38 34 30 32 33 34 36 37
38 37 40 43 39 36 34 29 34 33 34 34 31 29 24 27 26 27 26 29 33 33 30 31 28 27 25 31 32 32 29 28 25 26 26 25 30 31 31 33 33 32 33 33 34
34 33 40 38 38 33 33 33 32 31 32 33 32 32 31 28 27 29 30 35 34 33 32 32 29 26 22 28 32 31 31 30 28 28 27 23 27 27 28 29 30 32 33 33 32
33 38 37 37 34 31 31 31 30 35 34 34 33 32 31 30 31 30 30 35 35 34 37 35 29 25 17 17 29 28 30 31 30 29 24 24 23 23 25 25 26 25 26 26 28
34 31 32 35 32 32 31 31 30 31 34 35 32 32 30 28 29 29 31 33 35 37 35 34 30 31 28 27 26 25 23 27 31 29 23 15 18 20 22 23 24 26 27 27 26
33 31 30 30 30 31 32 30 29 30 33 32 32 29 32 28 26 23 29 30 29 36 35 35 30 29 27 26 26 26 25 25 24 26 26 25 23 25 24 24 25 24 23 24 25
38 36 31 27 29 27 25 27 29 32 32 30 32 30 30 31 31 30 30 29 29 32 34 34 32 28 21 23 24 18 18 21 23 24 24 23 24 23 22 23 24 25 25 25 25
Lifted_Index
2 2 2 2 2 1 -0 -1 -1 -0 -0 0 2 3 4 4 4 4 4 4 5 7 9 9 7 5 5 6 8 8 6 5 5 5 5 6 7 7 7 7 7 8 9 9 9
2 2 2 2 1 0 -0 -1 -1 -1 -1 -0 1 3 3 4 4 4 4 4 5 7 9 8 6 5 5 6 8 8 6 5 6 6 6 6 7 7 7 7 7 8 9 9 10
3 3 2 1 -0 -1 -1 -1 -1 -1 -1 -1 1 2 3 4 4 5 5 5 5 6 7 6 5 5 5 7 8 8 7 7 7 7 7 7 7 7 7 7 8 9 9 10 10
4 3 2 -0 -1 -1 -1 -1 -1 -2 -2 -2 -0 2 3 3 4 5 6 6 6 6 6 5 4 5 6 7 8 8 8 7 7 7 7 7 7 7 7 8 9 10 10 11 11
4 3 2 0 -1 -1 -1 -1 -1 -2 -2 -1 -0 1 2 3 5 6 7 7 7 6 5 4 4 5 6 7 8 8 8 8 7 7 7 7 7 7 8 9 10 11 11 11 12
5 4 2 1 0 -0 -1 -1 -1 -1 -1 -0 1 2 3 4 6 7 7 8 7 6 5 4 4 5 6 7 8 8 8 8 8 8 7 7 7 8 8 9 10 11 11 11 12
5 5 3 2 1 0 0 -0 -0 0 1 1 2 3 4 5 6 7 7 7 7 6 5 5 5 6 7 7 8 8 8 8 8 8 8 8 7 8 9 9 10 10 10 11 11
5 5 4 3 2 1 1 1 1 1 2 3 3 4 5 6 6 6 7 7 7 7 6 7 7 7 7 8 8 8 7 7 7 8 8 8 7 8 9 9 9 10 10 10 10
6 6 5 5 4 3 3 3 3 3 4 4 5 5 5 6 6 7 7 8 8 8 8 8 9 8 8 7 7 6 5 5 7 8 8 8 7 8 9 9 9 9 9 9 9
6 6 6 6 6 5 5 5 5 5 5 6 6 6 7 7 7 7 8 8 9 9 9 9 9 8 8 7 5 5 5 5 6 7 8 7 7 8 9 9 8 8 8 9 9
7 6 6 6 6 6 6 7 7 6 6 6 7 7 7 7 7 7 8 8 8 8 8 8 8 7 7 7 6 6 5 5 6 7 7 6 6 7 8 8 7 8 8 8 9
7 7 7 6 7 7 7 7 7 7 7 7 7 7 7 7 7 7 8 8 8 7 7 7 7 7 8 7 7 6 5 5 6 7 7 6 5 6 6 7 7 7 7 8 8
8 8 7 7 7 7 7 6 7 7 6 6 7 6 6 6 6 7 7 7 7 7 7 7 7 8 8 7 6 6 5 5 6 6 6 5 4 4 5 6 6 7 8 8 9
9 9 9 8 7 6 6 6 7 6 4 4 5 6 6 6 6 6 7 7 6 6 6 6 7 7 7 7 6 6 6 6 5 5 5 4 3 3 4 4 5 7 8 9 9
10 10 10 9 8 7 7 7 7 5 3 3 4 5 5 5 5 6 6 6 6 6 6 6 7 7 7 7 7 6 6 6 5 4 4 4 3 3 4 4 5 6 8 9 9
10 10 10 10 9 8 8 7 6 4 3 3 4 4 4 4 5 6 6 6 6 5 5 6 7 7 7 7 7 7 6 5 4 3 3 3 3 3 4 4 5 7 8 8 9
11 10 10 10 10 10 9 7 4 3 3 3 3 4 4 4 4 5 5 6 6 5 5 5 6 7 7 7 7 6 5 3 2 2 2 3 3 3 4 5 6 7 8 8 8
11 11 10 10 11 10 9 6 3 3 3 4 4 4 4 4 4 4 5 5 5 5 4 4 4 6 7 6 6 5 4 3 2 1 2 3 3 4 5 6 7 7 8 8 8
12 11 10 10 11 11 8 5 4 4 5 4 4 4 4 4 4 4 4 5 5 5 5 4 4 5 7 7 6 6 5 4 3 2 2 2 3 4 5 6 6 7 7 7 7
12 11 11 11 11 10 7 5 5 6 6 6 5 4 4 4 4 4 5 5 6 6 6 5 4 5 6 7 6 6 6 5 4 2 1 1 2 3 5 5 5 6 6 6 7
11 10 10 11 11 9 7 6 7 8 8 8 6 6 5 5 5 5 5 6 6 7 7 6 5 5 6 6 6 6 6 5 4 3 2 1 2 3 4 5 5 6 6 7 7
9 9 10 10 9 8 7 7 8 9 9 8 8 7 6 6 5 5 5 6 7 7 7 6 5 4 4 6 6 6 6 5 4 3 2 2 2 4 5 5 6 6 7 7 7
7 7 9 9 9 8 8 8 9 9 8 8 8 8 7 6 6 6 6 6 7 7 7 7 5 4 4 5 6 6 6 6 5 4 3 2 3 4 6 6 7 7 8 8 7
6 7 7 8 8 8 8 9 8 9 8 8 8 8 8 7 7 7 7 7 8 8 8 7 6 5 4 5 6 6 6 6 6 4 3 2 3 5 7 8 9 9 9 9 9
7 6 6 6 6 7 8 8 8 9 9 9 9 9 8 8 8 8 8 9 9 9 9 8 7 6 6 6 6 6 6 6 6 4 3 3 3 5 7 9 10 10 10 10 10
7 7 6 6 5 6 6 7 7 9 9 9 9 10 9 9 9 9 9 9 9 9 9 8 7 6 5 6 6 5 5 5 5 5 4 4 4 6 9 10 10 11 11 11 11
6 6 7 6 6 5 5 5 7 9 10 10 10 10 10 10 10 10 10 10 10 10 9 9 8 6 5 5 5 4 3 4 5 5 5 4 5 8 9 10 11 11 11 11 11